Temperature
12 12 12 12 12 11 11 11 11 11 11 11 11 11 11 11 11 11 11 11 10 10 10 10 10 10 10 10 10 10 10 10 10 10 10 10 10 10 10 10 9 9 9
12 12 11 11 11 11 11 11 11 11 11 11 11 11 11 10 10 10 10 10 10 10 10 10 10 10 10 10 10 10 10 10 9 9 9 9 9 9 9 9 9 9 9
11 11 11 11 11 11 10 10 10 10 10 10 10 10 10 10 10 10 10 10 10 10 10 10 10 10 9 9 9 9 9 9 9 9 9 9 9 9 9 8 8 8 8
11 11 11 10 10 10 10 10 10 10 10 10 10 10 10 10 9 9 9 9 9 9 9 9 9 9 9 9 8 8 9 9 9 9 9 9 8 8 8 8 8 8 8
11 10 10 10 10 10 10 9 9 9 9 9 9 9 9 9 9 9 9 9 9 9 9 9 9 9 8 8 8 8 8 8 8 8 8 8 8 8 8 8 8 7 7
10 10 10 10 9 9 9 9 9 9 9 9 9 9 9 9 9 9 9 9 9 9 9 8 9 8 8 8 8 8 8 8 8 8 8 8 8 8 7 7 7 7 7
10 10 9 9 9 9 9 9 9 8 8 8 8 8 8 8 8 8 8 8 8 8 8 8 8 8 8 8 8 8 7 7 7 7 7 7 7 7 7 7 7 7 6
9 9 9 9 9 9 9 8 8 8 8 8 8 7 7 7 8 8 8 8 8 8 8 8 8 8 8 8 7 7 7 7 7 7 7 7 7 7 6 6 6 6 6
9 9 9 9 8 8 8 8 8 8 8 8 7 7 7 7 7 7 7 7 7 7 7 7 7 7 7 7 7 7 7 7 7 6 6 6 6 6 6 6 6 6 5
8 8 8 8 8 8 8 8 8 8 7 7 7 7 7 7 7 7 7 7 7 7 7 7 7 7 7 7 7 7 7 6 6 6 6 6 6 6 5 5 5 5 5
8 8 8 8 8 7 7 7 7 7 7 7 7 7 7 7 7 7 7 7 7 7 7 7 7 6 6 6 6 6 6 6 6 6 6 5 5 5 5 5 5 5 5
7 7 7 7 7 7 7 7 7 7 7 7 7 7 7 7 7 7 7 7 7 6 6 6 6 6 6 6 6 6 6 6 6 5 5 5 5 5 5 5 5 4 4
7 7 7 7 7 7 7 7 7 7 7 7 7 7 6 6 7 7 7 6 6 6 6 6 6 6 6 6 6 6 5 5 5 5 5 5 5 4 4 4 4 4 4
7 7 6 6 6 6 6 6 6 6 6 6 6 6 6 6 6 6 6 6 6 6 6 6 6 6 6 5 5 5 5 5 5 5 5 4 4 4 4 4 4 4 4
6 6 6 6 6 6 6 6 6 6 6 6 6 6 6 6 6 6 6 6 5 5 5 6 5 5 5 5 5 5 5 5 4 4 4 4 4 4 4 4 4 3 3
5 5 5 5 5 5 5 5 6 5 5 6 6 6 5 5 5 5 5 5 5 5 5 5 5 5 5 5 4 4 4 4 4 4 4 4 4 3 3 3 3 3 3
5 5 5 5 5 5 5 5 5 5 5 5 5 5 5 5 5 5 5 5 4 4 4 5 4 4 4 4 4 4 4 4 4 4 3 3 3 3 3 3 2 2 2
4 4 4 4 5 5 5 5 5 5 5 5 5 5 5 5 4 4 4 4 4 4 4 4 4 4 4 4 4 4 3 3 3 3 3 3 3 2 2 2 2 2 2
3 4 4 4 4 4 4 4 4 4 4 4 4 4 4 4 4 4 4 4 4 4 4 3 4 3 3 3 3 3 3 3 3 3 2 2 2 2 2 2 2 1 1
3 3 3 3 4 4 4 4 4 4 4 4 4 4 4 4 4 4 4 3 3 3 3 3 3 3 3 3 2 2 3 3 2 2 2 2 2 2 1 1 1 1 1
2 2 3 3 3 3 3 4 3 3 3 3 3 3 3 3 3 3 3 3 3 3 2 2 2 2 2 2 2 2 2 2 2 2 1 2 1 1 1 1 1 1 1
2 2 2 2 3 3 3 3 3 3 3 3 3 3 3 3 3 3 3 3 3 2 2 2 2 2 2 2 2 1 1 1 1 1 1 1 1 1 1 1 1 0 0
1 1 2 2 2 2 2 2 2 2 2 2 2 2 2 2 2 2 2 2 2 2 2 2 2 2 2 1 1 1 1 1 0 0 0 1 1 1 1 0 0 -0 -0
1 1 1 1 1 2 2 2 2 2 2 2 2 2 2 2 2 2 2 2 2 2 2 2 1 1 1 1 1 0 0 -0 0 -0 -0 -0 0 0 0 0 -0 -0 -1
0 0 1 1 1 1 1 1 1 1 1 1 1 1 1 1 2 1 1 1 1 1 1 1 1 1 1 0 0 0 -0 -0 -0 -0 -1 -1 -0 -0 0 0 -0 -1 -1
-0 0 0 0 0 1 1 1 1 1 1 1 1 1 1 1 1 1 1 1 1 1 1 1 1 1 0 0 -0 -0 -1 -1 -1 -1 -1 -1 -1 -1 -1 -0 -1 -1 -1
Wind_Speed
5 5 5 6 7 7 7 7 7 8 8 8 8 8 7 7 7 7 6 7 7 7 6 6 6 7 7 7 7 7 8 8 8 8 8 8 7 8 7 7 8 8 8
7 6 5 5 6 7 7 7 7 7 6 7 6 7 6 6 7 7 7 7 7 7 6 5 6 7 7 7 7 7 7 7 7 7 7 7 7 8 8 7 7 7 7
8 7 5 4 5 7 8 8 7 7 6 5 5 5 5 6 6 6 6 7 7 6 6 6 6 6 6 6 6 6 6 6 6 6 6 6 6 6 7 8 7 7 7
8 7 5 4 6 8 7 6 5 4 4 3 3 3 4 5 5 5 6 6 6 6 6 6 6 6 6 6 6 6 6 5 5 5 5 5 5 5 6 6 7 7 8
7 7 5 5 7 7 5 5 3 3 4 4 4 3 3 3 4 4 5 5 5 6 6 6 6 6 5 5 5 5 5 5 5 4 4 4 4 5 5 5 6 6 7
7 7 5 6 7 5 4 4 5 4 4 4 4 4 3 3 3 3 3 4 4 5 5 6 6 5 4 4 4 4 4 4 4 3 3 4 4 4 5 4 5 5 6
7 6 4 5 5 4 5 6 4 5 3 3 3 3 3 2 2 2 3 3 3 4 5 5 4 5 4 4 3 3 4 3 2 2 3 3 4 4 4 4 4 5 6
6 6 5 4 5 5 5 5 5 4 2 3 3 3 1 1 1 2 2 2 2 3 3 3 3 4 3 3 2 3 2 3 3 2 2 2 3 4 4 5 4 5 5
6 6 6 6 5 5 6 5 6 6 4 2 2 3 3 3 1 1 0 1 1 1 1 2 2 2 2 2 2 2 2 3 4 3 2 3 3 3 4 4 5 4 5
5 6 6 6 5 4 5 6 5 4 6 4 2 1 2 3 3 1 1 0 0 1 1 1 2 1 1 0 0 1 2 3 4 3 3 3 4 4 4 5 5 4 4
3 5 6 6 5 4 5 5 5 5 4 5 4 2 2 2 2 2 2 1 1 1 1 2 2 2 1 1 1 2 2 3 4 4 4 4 4 5 5 5 5 6 5
2 4 5 6 6 5 5 5 6 6 5 5 4 3 3 3 3 2 2 2 2 2 1 1 2 3 2 2 2 2 2 3 4 5 5 5 5 5 6 6 5 6 6
3 4 4 4 5 5 6 6 5 5 6 6 6 4 3 3 3 3 3 2 2 2 1 1 3 3 3 3 3 3 3 3 4 5 6 6 6 6 6 6 6 6 6
3 3 4 5 5 6 6 6 4 5 5 6 6 5 3 3 3 3 3 3 1 1 2 3 1 3 3 3 4 3 3 4 4 5 6 7 7 7 7 7 7 7 7
2 3 4 4 5 6 6 6 5 5 5 6 6 5 4 3 3 3 3 4 4 3 4 3 2 1 2 3 4 3 4 4 5 6 6 7 7 7 7 8 8 7 7
2 3 3 4 4 5 5 5 4 5 6 5 5 6 5 3 3 3 3 3 3 4 3 3 3 1 2 2 3 3 4 4 5 6 7 7 8 8 8 8 8 7 7
3 3 4 4 5 5 5 6 6 6 6 6 5 6 6 5 4 3 3 3 3 3 4 3 1 1 2 2 2 3 3 3 5 6 7 8 8 8 8 8 7 7 8
3 4 4 4 5 5 5 6 7 6 7 7 7 6 6 5 5 4 4 4 4 4 4 4 2 2 2 2 2 2 2 3 5 6 7 8 8 8 8 8 8 8 9
3 4 4 5 5 5 5 6 6 6 7 7 7 7 7 7 6 5 5 5 4 3 3 3 3 2 1 1 1 1 2 3 4 6 7 7 7 8 8 8 8 9 9
4 4 4 5 5 5 5 6 6 6 6 6 6 6 7 7 7 7 6 6 5 4 3 3 3 2 1 1 1 1 2 2 3 4 5 6 7 8 9 9 9 9 9
4 4 4 4 4 4 5 6 6 6 6 5 5 5 6 7 8 7 6 6 6 5 4 4 3 2 2 2 2 2 2 2 3 2 2 4 5 6 7 9 9 10 10
3 3 4 4 4 4 6 7 6 5 5 6 5 5 5 6 7 8 8 8 8 7 6 5 4 4 4 3 2 2 2 2 3 2 2 4 3 4 6 7 9 10 11
3 3 4 4 4 5 6 6 6 4 4 5 5 5 4 4 6 5 6 6 6 8 8 6 6 6 5 5 4 3 3 3 4 3 2 4 3 4 6 7 9 10 10
2 3 3 4 3 4 5 6 6 4 3 4 4 5 5 5 5 6 5 4 4 4 5 4 5 6 5 5 5 5 4 3 2 2 2 3 3 3 5 7 8 8 9
2 2 2 3 3 3 4 5 5 3 3 3 4 4 5 5 7 7 6 5 4 3 3 5 5 5 5 6 5 3 2 2 3 3 2 2 3 3 3 4 7 8 9
1 1 1 1 2 2 3 3 4 3 3 3 3 3 5 6 7 7 6 6 5 4 3 2 2 2 2 3 5 4 4 3 2 3 2 2 2 1 3 3 4 6 7
Wind_Direction
129 122 116 114 111 114 114 112 111 107 103 99 98 98 93 89 86 79 81 90 94 97 98 102 104 103 98 89 81 74 70 69 63 59 56 56 57 55 54 52 51 48 45
142 135 127 123 121 124 126 123 119 115 105 103 94 95 94 91 86 82 79 80 83 86 93 105 104 102 96 89 82 77 71 66 63 57 55 52 53 51 47 45 48 45 42
148 142 135 129 132 133 127 119 111 107 100 96 89 91 92 89 90 87 85 82 77 76 82 92 95 93 90 88 83 77 72 66 61 56 53 48 47 47 45 44 44 39 34
154 144 139 138 141 136 130 123 121 113 101 95 86 74 78 85 86 90 89 85 81 74 74 86 91 85 79 78 76 74 73 65 60 54 49 47 44 43 42 41 38 34 28
158 150 145 145 145 135 132 134 126 128 124 110 94 70 60 69 76 86 85 88 89 84 77 76 79 75 69 70 68 66 63 62 57 50 44 40 36 31 30 35 31 28 23
159 153 147 148 146 136 137 137 135 119 123 122 102 73 50 46 66 74 81 90 95 92 85 77 75 72 65 63 61 60 53 56 56 53 47 39 29 22 18 22 19 22 22
160 156 149 147 150 154 156 150 139 133 125 125 103 73 38 42 57 57 73 87 88 94 92 86 81 76 60 46 45 43 36 32 36 40 37 32 22 13 12 15 20 19 15
168 167 156 158 161 156 154 158 147 143 137 150 134 125 102 13 12 40 56 84 83 92 94 95 95 84 69 57 35 24 14 7 359 348 355 2 4 2 4 12 9 9 7
174 171 169 162 167 166 171 172 167 158 160 168 147 149 154 196 239 342 40 69 94 87 103 117 114 106 88 60 37 12 357 341 335 328 320 325 330 332 338 346 347 349 353
178 178 174 168 169 170 173 180 176 171 162 171 159 114 133 148 150 177 302 317 103 154 188 168 151 155 128 71 296 313 323 321 317 316 312 317 319 322 328 333 339 339 345
184 184 179 172 175 178 178 177 176 177 173 172 168 157 123 87 118 154 207 254 281 256 224 210 193 197 202 219 234 271 295 306 304 307 313 320 321 326 325 327 330 332 329
187 195 187 183 181 180 183 186 183 182 183 174 171 168 162 162 175 159 179 220 241 266 252 233 210 212 210 228 240 265 284 296 304 308 313 313 315 317 317 314 314 321 317
205 206 200 193 188 184 181 180 181 187 184 180 184 186 179 176 166 159 155 179 228 273 282 255 229 217 226 237 245 252 269 286 299 306 309 310 312 312 310 307 307 309 311
218 201 198 197 189 181 180 178 184 192 185 188 191 185 180 184 172 166 163 159 179 271 277 263 260 227 231 235 241 247 263 271 283 294 300 306 305 302 303 298 299 299 307
211 192 196 199 192 184 182 177 189 195 187 193 192 188 188 189 182 172 161 167 171 209 245 245 239 245 237 233 236 236 253 261 279 288 290 296 299 295 296 294 292 292 301
206 196 195 198 195 189 183 182 189 192 189 196 191 187 193 188 183 176 171 174 175 188 227 236 227 232 222 229 238 242 252 266 280 286 289 291 291 288 289 295 289 287 292
208 211 206 197 198 196 188 188 195 192 196 197 192 192 198 187 187 187 179 176 181 177 216 250 225 222 215 221 252 249 258 271 278 285 286 286 282 282 287 290 286 285 289
215 214 210 201 204 200 193 194 198 197 198 201 198 194 201 194 194 191 191 195 195 190 197 227 233 212 227 231 232 252 265 264 274 282 284 283 275 276 282 287 287 284 287
222 216 210 209 208 206 200 198 198 198 200 203 199 198 201 195 201 198 195 199 199 195 191 198 219 220 235 240 248 284 284 281 285 283 284 282 273 276 278 283 283 281 282
229 221 217 214 208 206 205 201 197 197 199 202 201 201 200 201 204 199 199 198 191 188 182 185 198 215 233 238 208 252 286 289 294 294 286 286 281 282 282 284 283 281 278
232 222 218 218 209 207 205 198 196 193 196 201 202 205 206 204 204 203 202 195 187 189 187 192 200 208 221 225 232 228 260 289 286 271 276 287 282 280 283 284 283 283 280
231 221 221 218 216 218 205 201 197 192 196 200 204 208 209 206 207 207 207 200 191 192 195 199 207 213 224 220 220 227 242 280 278 263 263 280 263 268 275 277 279 283 281
232 227 224 213 213 211 204 200 198 197 195 200 203 204 207 211 207 203 206 207 210 211 206 202 204 215 214 209 198 215 229 242 254 260 261 273 258 259 270 275 279 282 281
229 231 225 214 209 213 203 201 195 198 195 201 201 200 202 209 206 190 183 193 210 217 213 210 211 217 216 205 199 207 218 235 266 271 236 259 269 268 283 276 274 275 282
239 239 226 204 201 221 213 208 197 191 195 205 208 201 201 206 207 193 184 190 200 213 211 208 214 215 214 212 195 165 182 225 264 259 219 234 274 294 284 267 266 272 283
250 244 230 198 194 208 208 208 201 193 194 203 205 206 208 210 208 201 195 194 204 211 188 182 187 206 207 209 202 195 197 215 246 249 212 216 256 303 297 270 265 279 285
Height
1538 1540 1542 1543 1545 1547 1549 1550 1552 1554 1555 1557 1558 1559 1560 1562 1563 1564 1564 1565 1566 1567 1567 1567 1567 1567 1567 1567 1568 1568 1568 1568 1568 1568 1568 1567 1567 1567 1567 1566 1566 1565 1565
1536 1538 1540 1542 1544 1545 1547 1549 1551 1553 1554 1556 1557 1558 1560 1561 1562 1563 1564 1565 1565 1566 1566 1567 1567 1567 1567 1567 1567 1567 1567 1567 1567 1567 1567 1567 1567 1566 1566 1566 1565 1565 1564
1534 1536 1538 1540 1542 1544 1546 1548 1550 1551 1553 1555 1556 1557 1559 1560 1561 1562 1563 1564 1565 1565 1566 1566 1566 1566 1567 1567 1567 1567 1567 1567 1566 1566 1566 1566 1566 1566 1565 1565 1565 1564 1564
1532 1534 1536 1538 1540 1542 1544 1546 1548 1550 1551 1553 1555 1556 1557 1559 1560 1561 1562 1563 1564 1564 1565 1565 1566 1566 1566 1566 1566 1566 1566 1566 1566 1565 1565 1565 1565 1565 1565 1564 1564 1563 1562
1530 1532 1534 1536 1538 1540 1542 1544 1546 1548 1550 1551 1553 1555 1556 1557 1559 1560 1561 1561 1562 1563 1563 1564 1564 1565 1565 1565 1565 1566 1565 1565 1564 1564 1564 1564 1564 1564 1563 1563 1562 1562 1561
1527 1530 1531 1533 1535 1537 1539 1541 1544 1546 1548 1549 1551 1553 1554 1556 1557 1558 1559 1560 1561 1561 1562 1563 1563 1563 1564 1564 1564 1565 1564 1564 1563 1563 1563 1563 1563 1562 1562 1562 1561 1560 1560
1525 1527 1529 1531 1533 1535 1537 1539 1541 1543 1545 1547 1549 1550 1552 1553 1555 1556 1557 1557 1558 1559 1560 1561 1561 1562 1562 1562 1563 1563 1563 1562 1562 1562 1562 1561 1561 1561 1560 1560 1559 1558 1558
1523 1524 1526 1528 1530 1532 1534 1536 1538 1540 1542 1544 1546 1548 1549 1552 1551 1553 1554 1555 1556 1557 1558 1558 1559 1560 1560 1560 1561 1561 1561 1561 1560 1560 1560 1560 1559 1559 1559 1558 1557 1557 1556
1520 1521 1523 1525 1527 1529 1531 1533 1535 1537 1539 1541 1544 1546 1547 1547 1549 1550 1551 1552 1553 1554 1555 1556 1557 1557 1558 1558 1559 1559 1559 1559 1559 1558 1558 1558 1558 1557 1557 1556 1556 1555 1554
1516 1518 1520 1522 1524 1526 1528 1530 1532 1534 1536 1538 1541 1543 1545 1545 1546 1547 1549 1549 1550 1551 1552 1553 1554 1555 1556 1556 1556 1557 1557 1556 1556 1556 1556 1556 1555 1555 1554 1554 1553 1553 1552
1513 1515 1517 1519 1521 1523 1525 1527 1529 1531 1533 1535 1537 1539 1541 1542 1543 1545 1545 1546 1548 1548 1549 1550 1551 1552 1553 1553 1553 1554 1554 1553 1553 1553 1553 1553 1552 1552 1552 1551 1551 1550 1549
1510 1512 1514 1516 1518 1520 1522 1523 1525 1527 1529 1531 1533 1535 1537 1539 1540 1541 1542 1543 1544 1545 1546 1547 1548 1549 1550 1550 1550 1551 1550 1550 1550 1550 1550 1550 1549 1549 1549 1548 1547 1547 1546
1506 1508 1510 1512 1514 1516 1518 1520 1522 1524 1525 1527 1529 1531 1533 1535 1537 1538 1540 1540 1541 1542 1543 1544 1545 1546 1546 1547 1547 1547 1547 1547 1547 1547 1546 1546 1546 1546 1545 1545 1544 1543 1542
1502 1504 1506 1508 1510 1512 1514 1516 1518 1519 1521 1523 1525 1527 1529 1531 1533 1534 1536 1538 1538 1539 1539 1540 1541 1542 1543 1543 1543 1543 1543 1543 1543 1543 1543 1543 1542 1542 1541 1540 1540 1539 1538
1498 1500 1502 1504 1506 1508 1509 1511 1513 1515 1517 1519 1521 1523 1525 1527 1529 1530 1532 1534 1536 1535 1535 1536 1538 1538 1539 1539 1539 1540 1540 1539 1539 1539 1539 1538 1538 1537 1537 1536 1535 1535 1534
1494 1496 1497 1499 1501 1503 1505 1507 1509 1511 1513 1514 1516 1518 1520 1522 1524 1526 1527 1529 1530 1532 1531 1532 1533 1534 1535 1535 1535 1536 1536 1536 1535 1535 1535 1534 1533 1533 1532 1532 1531 1530 1529
1489 1491 1493 1495 1496 1498 1500 1502 1504 1506 1508 1509 1511 1513 1515 1517 1519 1521 1523 1524 1526 1527 1527 1528 1530 1530 1531 1531 1531 1531 1532 1531 1531 1531 1530 1530 1529 1528 1528 1527 1526 1525 1524
1485 1486 1488 1490 1492 1493 1495 1497 1499 1501 1503 1505 1507 1509 1510 1513 1514 1516 1518 1519 1521 1522 1523 1523 1524 1526 1526 1527 1527 1527 1527 1527 1526 1526 1526 1525 1524 1524 1523 1522 1521 1520 1519
1480 1482 1484 1485 1487 1489 1490 1492 1494 1496 1498 1500 1502 1504 1505 1507 1509 1511 1512 1514 1516 1517 1518 1519 1519 1521 1522 1522 1522 1522 1522 1522 1521 1521 1520 1520 1519 1519 1518 1517 1516 1515 1514
1476 1477 1479 1481 1482 1484 1486 1487 1489 1491 1493 1495 1497 1499 1500 1502 1504 1505 1507 1509 1511 1512 1513 1514 1515 1516 1517 1517 1517 1517 1516 1517 1516 1516 1515 1515 1514 1514 1513 1512 1512 1510 1509
1472 1473 1474 1476 1477 1479 1481 1482 1484 1486 1488 1490 1492 1494 1495 1497 1499 1501 1502 1503 1505 1507 1508 1509 1510 1511 1511 1512 1513 1513 1512 1512 1511 1511 1510 1510 1509 1508 1508 1507 1506 1505 1504
1467 1468 1470 1471 1472 1474 1476 1478 1480 1481 1483 1485 1486 1488 1490 1492 1494 1496 1497 1499 1500 1502 1503 1504 1505 1506 1506 1508 1509 1509 1508 1508 1507 1507 1506 1505 1505 1503 1503 1503 1501 1500 1499
1463 1464 1465 1466 1467 1469 1471 1473 1475 1477 1478 1480 1482 1484 1485 1487 1489 1491 1492 1494 1495 1497 1499 1500 1500 1501 1502 1503 1504 1505 1504 1504 1503 1502 1501 1499 1499 1498 1498 1497 1497 1496 1494
1458 1459 1460 1462 1463 1465 1467 1468 1470 1472 1473 1475 1477 1479 1481 1482 1484 1486 1487 1489 1490 1492 1493 1495 1496 1497 1498 1499 1500 1500 1500 1500 1498 1498 1497 1495 1493 1493 1492 1492 1491 1490 1489
1454 1455 1456 1458 1459 1460 1463 1464 1466 1467 1469 1471 1473 1475 1476 1478 1479 1481 1483 1484 1485 1487 1489 1490 1491 1492 1493 1494 1495 1495 1495 1494 1493 1492 1492 1491 1489 1487 1486 1486 1486 1485 1484
1451 1451 1452 1453 1455 1456 1458 1460 1462 1463 1464 1466 1468 1470 1472 1473 1475 1476 1478 1479 1480 1481 1484 1485 1486 1487 1488 1489 1489 1490 1490 1490 1488 1487 1487 1486 1485 1484 1481 1480 1481 1480 1479